Weather History for Manistique, MI

Change the Weather History Date:

Friday, December 13, 2013

  Actual Average Record
Temperature  
Mean Temperature 6 °F -  
Max Temperature 12 °F 31 °F 42 °F (1998)
Min Temperature 0 °F 15 °F -8 °F (1985)
Degree Days  
Heating Degree Days 59    
Moisture  
Dew Point 1 °F    
Average Humidity 75    
Maximum Humidity 85    
Minimum Humidity 57    
Precipitation  
Precipitation 0.00 in - - ()
Sea Level Pressure  
Sea Level Pressure 30.23 in    
Wind  
Wind Speed 6 mph (NNW)    
Max Wind Speed 14 mph    
Max Gust Speed 21 mph    
Visibility 8 miles    
Events Snow    
Averages and records for this station are not official NWS values.
T = Trace of Precipitation, MM = Missing Value Source: NWS Daily Summary

Daily Weather History Graph

Daily Weather History Graph

Search for Another Location

Airport:

Trip Planner

Search our weather history database for the weather conditions in past years. The results will help you decide how hot, cold, wet, or windy it might be!

Date:

Astronomy

Dec. 13, 2013 Rise Set
Actual Time 8:18 AM EST 4:59 PM EST
Civil Twilight 7:43 AM EST 5:34 PM EST
Nautical Twilight 7:05 AM EST 6:12 PM EST
Astronomical Twilight 6:29 AM EST 6:48 PM EST
Moon 2:49 PM EST (12/13) 4:31 AM EST (12/13)
Length of Visible Light 9h 50m
Length of Day
8h 41m
Waxing Gibbous, 88% of the Moon is Illuminated
Dec 13
Waxing Gibbous
Dec 17
Full
Dec 25
Last Quarter
Jan 1
New
Jan 7
First Quarter

Hourly Weather History & Observations

Time (EST) Temp. Windchill Dew Point Humidity Pressure Visibility Wind Dir Wind Speed Gust Speed Precip Events Conditions
12:15 AM 12.2 °F 1.7 °F 2.3 °F 65% 30.03 in 10.0 mi West 6.9 mph 17.3 mph N/A   Clear
12:34 AM 12.2 °F 4.3 °F 2.3 °F 65% 30.03 in 10.0 mi West 4.6 mph - N/A   Clear
12:55 AM 12.7 °F 0.4 °F 3.0 °F 65% 30.03 in 10.0 mi West 9.2 mph 20.7 mph N/A   Clear
1:15 AM 12.7 °F -0.4 °F 3.2 °F 66% 30.05 in 10.0 mi West 10.4 mph - N/A   Scattered Clouds
1:34 AM 12.6 °F 2.2 °F 3.2 °F 66% 30.05 in 10.0 mi West 6.9 mph 16.1 mph N/A   Mostly Cloudy
1:55 AM 12.4 °F -1.6 °F 3.6 °F 68% 30.06 in 10.0 mi West 11.5 mph - N/A   Overcast
2:15 AM 12.2 °F -2.5 °F 4.1 °F 70% 30.07 in 10.0 mi WNW 12.7 mph 17.3 mph N/A   Overcast
2:34 AM 12.2 °F -1.8 °F 5.7 °F 75% 30.08 in 5.0 mi WNW 11.5 mph - N/A Snow Light Snow
2:55 AM 11.7 °F -3.8 °F 5.0 °F 75% 30.08 in 10.0 mi WNW 13.8 mph - N/A   Mostly Cloudy
3:15 AM 11.5 °F -2.7 °F 5.0 °F 75% 30.08 in 10.0 mi WNW 11.5 mph - N/A   Overcast
3:34 AM 11.3 °F -2.2 °F 5.9 °F 79% 30.09 in 4.0 mi WNW 10.4 mph - N/A Snow Light Snow
3:55 AM 10.8 °F -1.1 °F 5.9 °F 81% 30.10 in 5.0 mi WNW 8.1 mph - N/A Snow Light Snow
4:14 AM 10.4 °F -2.4 °F 6.1 °F 83% 30.10 in 7.0 mi WNW 9.2 mph - N/A Snow Light Snow
4:35 AM 11.1 °F 0.4 °F 6.8 °F 83% 30.11 in 2.0 mi WNW 6.9 mph - N/A Snow Light Snow
4:55 AM 10.8 °F -1.1 °F 6.6 °F 83% 30.11 in 2.0 mi WNW 8.1 mph - N/A Snow Light Snow
5:14 AM 10.4 °F -2.4 °F 6.3 °F 83% 30.13 in 3.0 mi WNW 9.2 mph - N/A Snow Light Snow
5:35 AM 9.5 °F -1.5 °F 5.7 °F 85% 30.13 in 3.0 mi WNW 6.9 mph - N/A Snow Light Snow
5:55 AM 9.0 °F -3.2 °F 4.6 °F 83% 30.14 in 10.0 mi WNW 8.1 mph - N/A Snow Light Snow
6:14 AM 7.9 °F -2.2 °F 3.9 °F 84% 30.14 in 2.5 mi WNW 5.8 mph - N/A Snow Light Snow
6:35 AM 7.7 °F -4.8 °F 3.4 °F 83% 30.15 in 10.0 mi WNW 8.1 mph - N/A Snow Light Snow
6:54 AM 7.7 °F -2.4 °F 3.4 °F 83% 30.16 in 5.0 mi WNW 5.8 mph - N/A Snow Light Snow
7:15 AM 7.5 °F -3.9 °F 3.6 °F 84% 30.17 in 7.0 mi WNW 6.9 mph - N/A Snow Light Snow
7:35 AM 7.3 °F -4.1 °F 3.2 °F 83% 30.18 in 5.0 mi West 6.9 mph - N/A Snow Light Snow
7:54 AM 7.2 °F -1.5 °F 3.0 °F 83% 30.18 in 10.0 mi WNW 4.6 mph - N/A   Scattered Clouds
8:15 AM 6.6 °F -2.2 °F 2.7 °F 84% 30.19 in 10.0 mi WNW 4.6 mph - N/A   Mostly Cloudy
8:34 AM 7.2 °F -1.5 °F 3.2 °F 84% 30.20 in 4.0 mi WNW 4.6 mph - N/A Snow Light Snow
8:55 AM 7.0 °F -1.7 °F 3.2 °F 84% 30.21 in 1.5 mi NW 4.6 mph - N/A Snow Light Snow
9:14 AM 7.3 °F 0.5 °F 3.2 °F 83% 30.22 in 2.0 mi WNW 3.5 mph - N/A Snow Light Snow
9:35 AM 7.7 °F 1.0 °F 3.7 °F 84% 30.23 in 1.2 mi NW 3.5 mph - N/A Snow Light Snow
9:55 AM 7.7 °F -0.9 °F 3.7 °F 84% 30.23 in 0.8 mi NNW 4.6 mph - N/A Snow Light Snow
10:14 AM 8.2 °F - 3.9 °F 83% 30.24 in 1.2 mi Calm Calm - N/A Snow Light Snow
10:35 AM 8.6 °F - 4.6 °F 84% 30.25 in 2.0 mi Calm Calm - N/A Snow Light Snow
10:54 AM 9.3 °F - 4.8 °F 82% 30.25 in 1.5 mi Calm Calm - N/A Snow Light Snow
11:15 AM 10.4 °F 4.0 °F 3.7 °F 74% 30.25 in 5.0 mi ENE 3.5 mph - N/A Snow Light Snow
11:34 AM 10.4 °F 2.2 °F 2.7 °F 71% 30.25 in 10.0 mi NNE 4.6 mph - N/A   Overcast
11:55 AM 10.8 °F 4.5 °F 2.7 °F 70% 30.25 in 10.0 mi NNE 3.5 mph - N/A   Overcast
12:15 PM 10.6 °F 4.3 °F 2.1 °F 69% 30.24 in 10.0 mi NE 3.5 mph - N/A   Overcast
12:34 PM 10.8 °F - 1.8 °F 67% 30.25 in 10.0 mi Calm Calm - N/A   Overcast
12:55 PM 10.8 °F - 1.8 °F 67% 30.25 in 10.0 mi Calm Calm - N/A   Mostly Cloudy
1:15 PM 10.8 °F 2.7 °F 0.3 °F 63% 30.26 in 10.0 mi NNE 4.6 mph - N/A   Mostly Cloudy
1:34 PM 11.1 °F - 0.7 °F 63% 30.26 in 10.0 mi Calm Calm - N/A   Overcast
1:55 PM 11.8 °F - 0.1 °F 59% 30.26 in 10.0 mi Calm Calm - N/A   Overcast
2:14 PM 12.7 °F - 0.5 °F 58% 30.26 in 10.0 mi Calm Calm - N/A   Overcast
2:35 PM 11.8 °F 2.5 °F 0.1 °F 59% 30.27 in 10.0 mi NE 5.8 mph - N/A   Overcast
2:55 PM 12.0 °F - -0.6 °F 57% 30.26 in 10.0 mi Calm Calm - N/A   Mostly Cloudy
3:14 PM 11.7 °F 2.3 °F -0.4 °F 58% 30.26 in 10.0 mi NNE 5.8 mph - N/A   Mostly Cloudy
3:35 PM 11.1 °F 3.1 °F -0.4 °F 60% 30.27 in 10.0 mi NNE 4.6 mph - N/A   Mostly Cloudy
3:55 PM 9.9 °F - -0.4 °F 63% 30.28 in 10.0 mi Calm Calm - N/A   Mostly Cloudy
4:14 PM 9.1 °F -0.7 °F -0.4 °F 65% 30.29 in 10.0 mi North 5.8 mph - N/A   Scattered Clouds
4:35 PM 8.6 °F -2.6 °F 1.4 °F 73% 30.29 in 10.0 mi ENE 6.9 mph - N/A   Scattered Clouds
4:55 PM 8.1 °F 1.4 °F 1.6 °F 75% 30.30 in 10.0 mi ENE 3.5 mph - N/A   Scattered Clouds
5:14 PM 6.8 °F -0.1 °F 1.0 °F 77% 30.31 in 10.0 mi ENE 3.5 mph - N/A   Scattered Clouds
5:35 PM 6.3 °F -2.6 °F -0.0 °F 75% 30.32 in 10.0 mi NE 4.6 mph - N/A   Clear
5:54 PM 5.0 °F -4.1 °F -1.3 °F 75% 30.33 in 10.0 mi ENE 4.6 mph - N/A   Clear
6:14 PM 4.5 °F -2.7 °F -1.8 °F 75% 30.33 in 10.0 mi ENE 3.5 mph - N/A   Clear
6:35 PM 4.5 °F -2.7 °F -1.5 °F 76% 30.33 in 10.0 mi NE 3.5 mph - N/A   Clear
6:54 PM 3.2 °F - -2.2 °F 78% 30.34 in 10.0 mi Calm Calm - N/A   Clear
7:15 PM 3.6 °F - -2.0 °F 78% 30.35 in 10.0 mi Calm Calm - N/A   Scattered Clouds
7:33 PM 1.6 °F - -3.5 °F 79% 30.36 in 10.0 mi Calm Calm - N/A   Scattered Clouds
7:55 PM 1.6 °F -6.0 °F -3.8 °F 78% 30.36 in 10.0 mi ENE 3.5 mph - N/A   Clear
8:15 PM 1.2 °F -10.1 °F -5.1 °F 75% 30.36 in 10.0 mi NE 5.8 mph - N/A   Clear
8:34 PM 1.6 °F -8.0 °F -4.9 °F 74% 30.36 in 10.0 mi ENE 4.6 mph - N/A   Clear
8:55 PM 1.4 °F - -4.7 °F 76% 30.37 in 10.0 mi Calm Calm - N/A   Clear
9:15 PM 1.8 °F - -4.2 °F 76% 30.37 in 10.0 mi Calm Calm - N/A   Clear
9:34 PM 1.0 °F - -4.9 °F 76% 30.37 in 10.0 mi Calm Calm - N/A   Clear
9:55 PM 0.9 °F -8.9 °F -4.9 °F 77% 30.37 in 10.0 mi NE 4.6 mph - N/A   Clear
10:15 PM 1.8 °F -5.8 °F -4.5 °F 75% 30.38 in 10.0 mi NE 3.5 mph - N/A   Clear
10:34 PM 1.9 °F -5.6 °F -4.2 °F 76% 30.37 in 10.0 mi NE 3.5 mph - N/A   Clear
10:55 PM 2.1 °F -5.4 °F -4.0 °F 76% 30.38 in 10.0 mi NNE 3.5 mph - N/A   Clear
11:14 PM 1.9 °F -5.6 °F -4.4 °F 75% 30.38 in 10.0 mi NE 3.5 mph - N/A   Clear
11:34 PM 2.3 °F -5.2 °F -4.0 °F 75% 30.38 in 10.0 mi NE 3.5 mph - N/A   Clear
11:55 PM 1.4 °F -6.2 °F -4.9 °F 75% 30.38 in 10.0 mi NE 3.5 mph - N/A   Clear